�������l�o���
Date,Time,MP-1(��Sv/h),MP-2(��Sv/h),MP-3(��Sv/h),MP-4(��Sv/h),MP-5(��Sv/h),MP-6(��Sv/h),MP-7(��Sv/h),MP-8(��Sv/h),����,����(m/s),���J
2021/01/12,00:00,0.663,0.947,0.606,1.196,0.837,0.374,0.667,0.633,�k��,2.2,��
2021/01/12,00:10,0.664,0.945,0.606,1.197,0.837,0.375,0.669,0.633,�k��,1.9,��
2021/01/12,00:20,0.663,0.947,0.608,1.196,0.838,0.374,0.668,0.634,�k��,2.9,��
2021/01/12,00:30,0.662,0.950,0.608,1.197,0.837,0.377,0.668,0.632,�k��,3.3,��
2021/01/12,00:40,0.663,0.947,0.606,1.196,0.837,0.375,0.671,0.633,�k��,3.9,��
2021/01/12,00:50,0.662,0.950,0.605,1.196,0.836,0.375,0.669,0.633,�k��,4.2,��
2021/01/12,01:00,0.664,0.948,0.605,1.196,0.838,0.376,0.668,0.633,�k��,4.4,��
2021/01/12,01:10,0.662,0.948,0.607,1.197,0.837,0.376,0.669,0.634,�k��,5.6,��
2021/01/12,01:20,0.664,0.948,0.606,1.197,0.839,0.375,0.670,0.632,�k��,5.7,��
2021/01/12,01:30,0.662,0.948,0.607,1.199,0.837,0.375,0.670,0.632,�k��,5.4,��
2021/01/12,01:40,0.663,0.950,0.606,1.196,0.836,0.375,0.671,0.631,�k��,4.3,��
2021/01/12,01:50,0.665,0.949,0.607,1.197,0.839,0.377,0.668,0.633,���k��,3.9,��
2021/01/12,02:00,0.664,0.948,0.606,1.195,0.837,0.377,0.670,0.632,���k��,3.7,��
2021/01/12,02:10,0.663,0.947,0.606,1.197,0.836,0.376,0.670,0.633,�k��,3.6,��
2021/01/12,02:20,0.663,0.947,0.606,1.197,0.838,0.377,0.670,0.634,���k��,3.8,��
2021/01/12,02:30,0.665,0.950,0.608,1.198,0.838,0.376,0.669,0.633,���k��,4.6,��
2021/01/12,02:40,0.663,0.948,0.606,1.197,0.839,0.375,0.669,0.633,�k��,4.8,��
2021/01/12,02:50,0.663,0.949,0.606,1.197,0.837,0.376,0.669,0.633,�k��,4.9,��
2021/01/12,03:00,0.665,0.949,0.607,1.198,0.837,0.375,0.670,0.633,�k��,4.7,��
2021/01/12,03:10,0.663,0.948,0.606,1.198,0.839,0.377,0.670,0.632,�k��,3.9,��
2021/01/12,03:20,0.663,0.949,0.608,1.198,0.838,0.376,0.669,0.634,�k��,3.9,��
2021/01/12,03:30,0.663,0.951,0.606,1.198,0.838,0.377,0.670,0.633,�k��,3.9,�L
2021/01/12,03:40,0.666,0.947,0.609,1.198,0.837,0.375,0.670,0.634,�k��,4.3,�L
2021/01/12,03:50,0.664,0.948,0.609,1.198,0.839,0.375,0.670,0.635,�k��,4.8,�L
2021/01/12,04:00,0.665,0.950,0.609,1.198,0.840,0.378,0.671,0.634,�k��,4.1,�L
2021/01/12,04:10,0.665,0.949,0.608,1.200,0.839,0.378,0.671,0.634,�k��,4.7,�L
2021/01/12,04:20,0.665,0.949,0.608,1.198,0.838,0.377,0.669,0.634,�k��,4.5,�L
2021/01/12,04:30,0.665,0.951,0.609,1.198,0.839,0.376,0.670,0.635,�k��,5.1,�L
2021/01/12,04:40,0.665,0.949,0.609,1.198,0.839,0.378,0.670,0.634,�k��,4.2,�L
2021/01/12,04:50,0.666,0.950,0.608,1.199,0.840,0.379,0.671,0.633,�k��,4.4,�L
2021/01/12,05:00,0.668,0.949,0.610,1.198,0.837,0.379,0.671,0.633,�k��,4.2,�L
2021/01/12,05:10,0.667,0.948,0.609,1.198,0.838,0.379,0.668,0.633,�k��,5.1,�L
2021/01/12,05:20,0.665,0.948,0.608,1.197,0.836,0.377,0.668,0.632,�k��,4.7,�L
2021/01/12,05:30,0.664,0.941,0.607,1.194,0.832,0.377,0.668,0.632,�k��,6.4,�L
2021/01/12,05:40,0.662,0.939,0.604,1.194,0.831,0.376,0.667,0.632,�k�k��,5.2,�L
2021/01/12,05:50,0.660,0.937,0.604,1.193,0.827,0.377,0.666,0.630,�k�k��,6.5,�L
2021/01/12,06:00,0.657,0.933,0.604,1.188,0.827,0.378,0.665,0.630,�k�k��,6.2,�L
2021/01/12,06:10,0.657,0.929,0.600,1.188,0.824,0.376,0.662,0.628,�k�k��,7.1,�L
2021/01/12,06:20,0.655,0.929,0.601,1.187,0.820,0.375,0.662,0.630,�k�k��,7.6,�L
2021/01/12,06:30,0.655,0.925,0.600,1.184,0.818,0.377,0.661,0.629,�k�k��,6.5,�L
2021/01/12,06:40,0.652,0.922,0.598,1.183,0.818,0.375,0.661,0.629,�k�k��,6.7,�L
2021/01/12,06:50,0.652,0.921,0.598,1.181,0.814,0.375,0.660,0.628,�k�k��,7.1,�L
2021/01/12,07:00,0.650,0.915,0.594,1.179,0.814,0.373,0.658,0.626,�k�k��,7.5,�L
2021/01/12,07:10,0.647,0.913,0.592,1.174,0.809,0.374,0.657,0.624,�k�k��,7.3,�L
2021/01/12,07:20,0.643,0.906,0.591,1.169,0.804,0.372,0.655,0.624,�k�k��,6.0,�L
2021/01/12,07:30,0.643,0.902,0.590,1.167,0.800,0.372,0.653,0.621,�k�k��,6.1,�L
2021/01/12,07:40,0.640,0.897,0.587,1.159,0.796,0.373,0.652,0.621,�k�k��,7.1,�L
2021/01/12,07:50,0.639,0.892,0.585,1.159,0.792,0.371,0.653,0.620,�k�k��,7.6,�L
2021/01/12,08:00,0.637,0.887,0.583,1.157,0.792,0.370,0.650,0.620,�k�k��,7.4,�L
2021/01/12,08:10,0.633,0.883,0.581,1.152,0.788,0.370,0.650,0.619,�k�k��,7.3,�L
2021/01/12,08:20,0.631,0.878,0.578,1.149,0.784,0.368,0.648,0.618,�k�k��,6.9,�L
2021/01/12,08:30,0.629,0.876,0.578,1.146,0.781,0.367,0.649,0.618,�k�k��,7.8,�L
2021/01/12,08:40,0.626,0.872,0.575,1.145,0.780,0.366,0.647,0.617,�k�k��,6.9,�L
2021/01/12,08:50,0.625,0.872,0.574,1.141,0.777,0.366,0.644,0.616,�k�k��,8.3,�L
2021/01/12,09:00,0.625,0.870,0.573,1.139,0.776,0.364,0.643,0.616,�k�k��,7.5,�L
2021/01/12,09:10,0.622,0.867,0.570,1.140,0.773,0.364,0.642,0.616,�k�k��,8.1,��
2021/01/12,09:20,0.622,0.866,0.570,1.139,0.773,0.364,0.644,0.615,�k�k��,7.6,��
2021/01/12,09:30,0.620,0.864,0.571,1.136,0.773,0.364,0.647,0.618,�k��,7.8,��
2021/01/12,09:40,0.620,0.863,0.570,1.135,0.770,0.364,0.644,0.616,�k�k��,8.0,��
2021/01/12,09:50,0.619,0.862,0.570,1.132,0.770,0.362,0.647,0.616,�k��,7.6,��
2021/01/12,10:00,0.618,0.862,0.569,1.133,0.770,0.363,0.645,0.617,�k��,7.1,��
2021/01/12,10:10,0.618,0.863,0.570,1.131,0.769,0.361,0.646,0.617,�k�k��,6.5,��
2021/01/12,10:20,0.619,0.862,0.568,1.134,0.769,0.362,0.646,0.617,�k�k��,6.6,�L
2021/01/12,10:30,0.618,0.860,0.567,1.134,0.768,0.362,0.646,0.616,�k��,6.5,�L
2021/01/12,10:40,0.616,0.858,0.568,1.128,0.769,0.362,0.647,0.617,�k�k��,7.3,�L
2021/01/12,10:50,0.617,0.860,0.566,1.130,0.766,0.361,0.648,0.619,�k�k��,7.5,��
2021/01/12,11:00,0.617,0.860,0.566,1.128,0.765,0.362,0.647,0.618,�k��,7.3,��
2021/01/12,11:10,0.619,0.858,0.569,1.130,0.765,0.360,0.648,0.617,�k�k��,7.2,��
2021/01/12,11:20,0.617,0.859,0.569,1.127,0.765,0.360,0.647,0.618,�k�k��,6.4,��
2021/01/12,11:30,0.619,0.859,0.569,1.128,0.767,0.359,0.648,0.617,�k�k��,6.9,��
2021/01/12,11:40,0.617,0.856,0.569,1.123,0.765,0.360,0.649,0.616,�k�k��,5.9,��
2021/01/12,11:50,0.618,0.856,0.568,1.121,0.764,0.360,0.647,0.616,�k�k��,5.7,��
2021/01/12,12:00,0.618,0.857,0.568,1.120,0.764,0.360,0.648,0.617,�k�k��,5.0,��
2021/01/12,12:10,0.619,0.858,0.569,1.117,0.764,0.360,0.649,0.617,�k�k��,5.1,��
2021/01/12,12:20,0.617,0.858,0.567,1.117,0.765,0.361,0.648,0.618,�k�k��,4.8,��
2021/01/12,12:30,0.619,0.859,0.569,1.117,0.767,0.360,0.648,0.617,�k�k��,5.3,�L
2021/01/12,12:40,0.618,0.859,0.568,1.117,0.767,0.360,0.651,0.618,�k�k��,4.4,��
2021/01/12,12:50,0.619,0.858,0.568,1.117,0.769,0.360,0.650,0.620,�k�k��,4.6,�L
2021/01/12,13:00,0.619,0.859,0.569,1.116,0.767,0.360,0.650,0.617,�k�k��,4.1,�L
2021/01/12,13:10,0.622,0.859,0.569,1.115,0.769,0.361,0.649,0.619,�k�k��,4.1,�L
2021/01/12,13:20,0.621,0.860,0.569,1.115,0.768,0.362,0.652,0.618,�k�k��,4.4,�L
2021/01/12,13:30,0.621,0.859,0.571,1.117,0.769,0.361,0.651,0.619,�k�k��,4.0,��
2021/01/12,13:40,0.622,0.862,0.572,1.117,0.770,0.362,0.651,0.620,�k�k��,5.1,�L
2021/01/12,13:50,0.622,0.858,0.570,1.119,0.771,0.360,0.650,0.620,�k�k��,5.3,�L
2021/01/12,14:00,0.623,0.862,0.571,1.120,0.771,0.362,0.653,0.619,�k�k��,4.9,��
2021/01/12,14:10,0.622,0.860,0.571,1.120,0.774,0.361,0.654,0.620,�k��,3.8,�L
2021/01/12,14:20,0.622,0.862,0.570,1.123,0.773,0.362,0.651,0.618,�k�k��,3.0,�L
2021/01/12,14:30,0.622,0.865,0.572,1.124,0.774,0.363,0.653,0.620,�k�k��,2.6,�L
2021/01/12,14:40,0.625,0.863,0.572,1.122,0.774,0.362,0.652,0.619,�k�k��,3.0,�L
2021/01/12,14:50,0.624,0.865,0.574,1.123,0.774,0.363,0.653,0.619,�k,1.4,�L
2021/01/12,15:00,0.625,0.864,0.574,1.123,0.776,0.363,0.652,0.620,�k��,3.2,�L
2021/01/12,15:10,0.624,0.864,0.573,1.122,0.773,0.363,0.654,0.620,�k�k��,2.5,�L
2021/01/12,15:20,0.623,0.863,0.574,1.124,0.774,0.363,0.652,0.619,��,2.3,�L
2021/01/12,15:30,0.624,0.863,0.573,1.126,0.774,0.362,0.652,0.621,�k��,3.9,�L
2021/01/12,15:40,0.624,0.862,0.570,1.124,0.773,0.364,0.654,0.620,���k��,3.0,�L
2021/01/12,15:50,0.623,0.861,0.573,1.123,0.774,0.364,0.652,0.620,���k��,3.9,�L
2021/01/12,16:00,0.622,0.866,0.571,1.123,0.773,0.365,0.653,0.620,�k��,3.7,�L
2021/01/12,16:10,0.623,0.865,0.570,1.122,0.773,0.364,0.651,0.620,���k��,3.2,�L
2021/01/12,16:20,0.623,0.866,0.570,1.124,0.772,0.363,0.651,0.620,���k��,2.9,�L
2021/01/12,16:30,0.622,0.864,0.572,1.124,0.772,0.364,0.651,0.620,���k��,3.2,�L
2021/01/12,16:40,0.624,0.867,0.572,1.123,0.774,0.363,0.652,0.619,���k��,2.5,�L
2021/01/12,16:50,0.624,0.867,0.573,1.125,0.774,0.363,0.652,0.621,���k��,2.3,�L
2021/01/12,17:00,0.622,0.865,0.572,1.127,0.775,0.365,0.652,0.620,�k��,1.7,�L
2021/01/12,17:10,0.623,0.867,0.573,1.127,0.775,0.365,0.651,0.621,���k��,2.5,�L
2021/01/12,17:20,0.623,0.868,0.575,1.125,0.776,0.363,0.652,0.620,���k��,2.3,�L
2021/01/12,17:30,0.625,0.870,0.574,1.127,0.774,0.366,0.653,0.621,�k��,1.9,�L
2021/01/12,17:40,0.624,0.870,0.573,1.127,0.776,0.364,0.653,0.621,�k�k��,2.8,�L
2021/01/12,17:50,0.625,0.867,0.575,1.128,0.775,0.366,0.652,0.619,�k��,3.3,�L
2021/01/12,18:00,0.626,0.870,0.575,1.128,0.776,0.365,0.652,0.620,�k�k��,4.8,�L
2021/01/12,18:10,0.625,0.870,0.575,1.127,0.777,0.364,0.654,0.621,�k�k��,5.9,�L
2021/01/12,18:20,0.626,0.869,0.576,1.128,0.774,0.364,0.653,0.622,�k�k��,7.6,�L
2021/01/12,18:30,0.626,0.871,0.577,1.129,0.776,0.361,0.653,0.622,�k�k��,6.7,�L
2021/01/12,18:40,0.626,0.870,0.576,1.129,0.776,0.363,0.652,0.622,�k�k��,5.8,�L
2021/01/12,18:50,0.625,0.870,0.575,1.128,0.777,0.362,0.652,0.620,�k�k��,5.3,�L
2021/01/12,19:00,0.628,0.873,0.577,1.131,0.776,0.363,0.653,0.621,�k�k��,4.0,��
2021/01/12,19:10,0.627,0.872,0.574,1.131,0.778,0.363,0.654,0.621,�k�k��,4.4,�L
2021/01/12,19:20,0.626,0.874,0.576,1.131,0.778,0.363,0.653,0.622,�k��,4.8,��
2021/01/12,19:30,0.627,0.872,0.576,1.133,0.777,0.364,0.655,0.621,�k��,3.8,��
2021/01/12,19:40,0.626,0.874,0.576,1.131,0.780,0.364,0.653,0.621,�k��,3.7,��
2021/01/12,19:50,0.626,0.873,0.576,1.134,0.778,0.363,0.654,0.621,�k��,3.8,��
2021/01/12,20:00,0.628,0.874,0.576,1.132,0.778,0.364,0.653,0.621,�k��,3.5,��
2021/01/12,20:10,0.626,0.876,0.577,1.134,0.779,0.365,0.655,0.621,�k�k��,3.3,��
2021/01/12,20:20,0.627,0.875,0.576,1.133,0.780,0.364,0.656,0.622,�k�k��,3.9,��
2021/01/12,20:30,0.628,0.875,0.577,1.133,0.778,0.363,0.654,0.622,�k�k��,4.0,��
2021/01/12,20:40,0.630,0.876,0.579,1.134,0.779,0.364,0.654,0.622,�k�k��,3.8,��
2021/01/12,20:50,0.629,0.878,0.577,1.137,0.780,0.363,0.655,0.624,�k��,3.7,��
2021/01/12,21:00,0.628,0.877,0.579,1.133,0.781,0.364,0.655,0.621,�k��,4.2,��
2021/01/12,21:10,0.630,0.879,0.577,1.135,0.780,0.366,0.655,0.622,�k�k��,3.7,��
2021/01/12,21:20,0.628,0.877,0.577,1.136,0.782,0.364,0.655,0.621,�k��,2.9,��
2021/01/12,21:30,0.628,0.877,0.578,1.135,0.781,0.364,0.655,0.622,�k��,2.9,��
2021/01/12,21:40,0.630,0.878,0.577,1.134,0.780,0.364,0.655,0.622,�k�k��,2.8,��
2021/01/12,21:50,0.629,0.877,0.578,1.135,0.780,0.363,0.654,0.621,�k,2.0,��
2021/01/12,22:00,0.629,0.879,0.578,1.136,0.783,0.365,0.654,0.622,�k��,2.6,��
2021/01/12,22:10,0.630,0.878,0.577,1.137,0.781,0.364,0.656,0.621,�k��,3.5,��
2021/01/12,22:20,0.629,0.878,0.578,1.138,0.781,0.364,0.654,0.621,���k��,3.3,��
2021/01/12,22:30,0.629,0.877,0.578,1.137,0.783,0.364,0.655,0.623,���k��,3.0,��
2021/01/12,22:40,0.630,0.878,0.578,1.137,0.783,0.366,0.656,0.621,��,3.5,��
2021/01/12,22:50,0.631,0.879,0.577,1.134,0.784,0.366,0.654,0.622,���k��,4.3,��
2021/01/12,23:00,0.629,0.879,0.579,1.137,0.785,0.366,0.653,0.621,���k��,3.8,��
2021/01/12,23:10,0.631,0.878,0.578,1.138,0.784,0.365,0.656,0.621,���k��,4.4,��
2021/01/12,23:20,0.630,0.881,0.578,1.137,0.783,0.365,0.655,0.621,���k��,4.3,��
2021/01/12,23:30,0.631,0.881,0.579,1.138,0.784,0.365,0.656,0.620,���k��,4.2,��
2021/01/12,23:40,0.629,0.882,0.578,1.137,0.783,0.367,0.654,0.623,�k��,3.8,��
2021/01/12,23:50,0.631,0.879,0.578,1.137,0.784,0.365,0.655,0.622,�k��,4.9,��
